Weather History for Wautoma, WI

Change the Weather History Date:

Wednesday, February 6, 2013

  Actual Average (KPCZ) Record (KPCZ)
Temperature  
Mean Temperature 7 °F -  
Max Temperature 24 °F 25 °F 47 °F (1990)
Min Temperature -10 °F 5 °F -19 °F (1959)
Degree Days  
Heating Degree Days 58    
Moisture  
Dew Point 11 °F    
Average Humidity 84    
Maximum Humidity 93    
Minimum Humidity 63    
Precipitation  
Precipitation 0.00 in - - ()
Sea Level Pressure  
Sea Level Pressure 30.14 in    
Wind  
Wind Speed 2 mph (ESE)    
Max Wind Speed 9 mph    
Max Gust Speed -    
Visibility 5 miles    
Events Fog , Snow    
Averages and records for this station are not official NWS values.
T = Trace of Precipitation, MM = Missing Value Source: NWS Daily Summary

Daily Weather History Graph

Daily Weather History Graph

Search for Another Location

Airport:

Trip Planner

Search our weather history database for the weather conditions in past years. The results will help you decide how hot, cold, wet, or windy it might be!

Date:

Astronomy

Feb. 06, 2013 Rise Set
Actual Time 7:08 AM CST 5:14 PM CST
Civil Twilight 6:38 AM CST 5:45 PM CST
Nautical Twilight 6:03 AM CST 6:19 PM CST
Astronomical Twilight 5:30 AM CST 6:53 PM CST
Moon 3:56 AM CST (2/6) 1:29 PM CST (2/6)
Length of Visible Light 11h 06m
Length of Day
10h 06m
Waning Crescent, 17% of the Moon is Illuminated
Feb 6
Waning Crescent
Feb 10
New
Feb 17
First Quarter
Feb 25
Full
Mar 4
Last Quarter

Hourly Weather History & Observations

Time (CST) Temp. Windchill Dew Point Humidity Pressure Visibility Wind Dir Wind Speed Gust Speed Precip Events Conditions
12:56 AM -4.0 °F - -8.0 °F 83% 30.14 in 10.0 mi Calm Calm - N/A   Clear
1:56 AM -4.0 °F - -8.9 °F 80% 30.16 in 10.0 mi Calm Calm - N/A   Clear
2:56 AM -6.9 °F - -10.8 °F 83% 30.17 in 10.0 mi Calm Calm - N/A   Clear
4:56 AM -8.9 °F - -13.9 °F 79% 30.19 in 10.0 mi Calm Calm - N/A   Clear
5:56 AM -9.9 °F - -15.0 °F 78% 30.19 in 10.0 mi Calm Calm - N/A   Clear
6:56 AM -10.8 °F - -17.0 °F 74% 30.21 in 10.0 mi Calm Calm - N/A   Clear
7:56 AM -9.9 °F - -15.0 °F 78% 30.22 in 8.0 mi Calm Calm - N/A   Mostly Cloudy
8:03 AM -9.4 °F - -14.8 °F 77% 30.17 in 9.0 mi Calm Calm - N/A   Mostly Cloudy
8:56 AM -4.0 °F - -8.0 °F 83% 30.25 in 8.0 mi Calm Calm - N/A   Overcast
9:56 AM 8.1 °F - 5.0 °F 87% 30.25 in 8.0 mi Calm Calm - N/A   Scattered Clouds
10:22 AM 10.4 °F - 6.8 °F 85% 30.19 in 8.0 mi Calm Calm - N/A   Mostly Cloudy
10:56 AM 14.0 °F - 11.1 °F 88% 30.22 in 9.0 mi Calm Calm - N/A   Scattered Clouds
11:56 AM 19.4 °F - 10.4 °F 68% 30.18 in 10.0 mi Calm Calm - N/A   Mostly Cloudy
12:56 PM 24.1 °F - 13.1 °F 63% 30.21 in 10.0 mi Calm Calm - N/A   Overcast
1:56 PM 24.1 °F - 14.0 °F 65% 30.19 in 10.0 mi Calm Calm - N/A   Overcast
2:26 PM 23.0 °F 17.0 °F 14.0 °F 68% 30.13 in 3.0 mi SSE 4.6 mph - 0.00 in   Overcast
2:34 PM 23.0 °F 15.8 °F 15.8 °F 74% 30.13 in 2.5 mi SE 5.8 mph - 0.00 in   Mostly Cloudy
2:42 PM 21.2 °F 14.9 °F 15.8 °F 80% 30.13 in 2.0 mi SSE 4.6 mph - 0.00 in Snow Light Snow
2:56 PM 21.2 °F - 17.6 °F 86% 30.13 in 1.5 mi Calm Calm - N/A Snow Light Snow
3:18 PM 21.2 °F 12.6 °F 17.6 °F 86% 30.13 in 2.5 mi SE 6.9 mph - 0.00 in Snow Light Snow
3:25 PM 21.2 °F 13.6 °F 17.6 °F 86% 30.12 in 1.2 mi ESE 5.8 mph - 0.00 in Snow Light Snow
3:31 PM 21.2 °F 14.9 °F 17.6 °F 86% 30.12 in 0.8 mi ESE 4.6 mph - 0.00 in Snow Light Snow
3:41 PM 21.2 °F 13.6 °F 17.6 °F 86% 30.12 in 0.5 mi ESE 5.8 mph - 0.00 in Fog , Snow Light Snow
3:56 PM 21.0 °F 13.4 °F 18.1 °F 89% 30.17 in 1.0 mi ESE 5.8 mph - 0.00 in Snow Light Snow
3:59 PM 21.2 °F 13.6 °F 17.6 °F 86% 30.12 in 1.5 mi ESE 5.8 mph - 0.00 in Snow Light Snow
4:06 PM 21.2 °F 12.6 °F 17.6 °F 86% 30.12 in 3.0 mi SE 6.9 mph - 0.00 in Snow Light Snow
4:13 PM 21.2 °F 14.9 °F 17.6 °F 86% 30.11 in 4.0 mi ESE 4.6 mph - 0.00 in   Scattered Clouds
4:56 PM 21.0 °F 13.4 °F 17.1 °F 85% 30.15 in 6.0 mi East 5.8 mph - 0.00 in   Overcast
5:56 PM 21.0 °F - 17.1 °F 85% 30.16 in 6.0 mi Calm Calm - N/A   Overcast
6:42 PM 21.2 °F 14.9 °F 17.6 °F 86% 30.09 in 2.5 mi ESE 4.6 mph - 0.00 in Snow Light Snow
6:56 PM 21.0 °F 14.6 °F 18.1 °F 89% 30.14 in 3.0 mi East 4.6 mph - 0.00 in Snow Light Snow
7:11 PM 21.2 °F 11.7 °F 17.6 °F 86% 30.10 in 2.0 mi NE 8.1 mph - 0.00 in Snow Light Snow
7:15 PM 21.2 °F 11.7 °F 19.4 °F 93% 30.10 in 1.8 mi NE 8.1 mph - 0.00 in Snow Light Snow
7:27 PM 21.2 °F 12.6 °F 19.4 °F 93% 30.08 in 1.2 mi East 6.9 mph - 0.00 in Snow Light Snow
7:32 PM 21.2 °F 12.6 °F 19.4 °F 93% 30.08 in 2.0 mi East 6.9 mph - 0.00 in Snow Light Snow
7:38 PM 21.2 °F 10.9 °F 19.4 °F 93% 30.08 in 4.0 mi East 9.2 mph - 0.00 in Snow Light Snow
7:56 PM 23.0 °F 13.9 °F 20.1 °F 89% 30.12 in 5.0 mi East 8.1 mph - 0.00 in   Overcast
8:34 PM 24.8 °F 16.9 °F 21.2 °F 86% 30.06 in 5.0 mi ESE 6.9 mph - N/A   Overcast
8:44 PM 24.8 °F - 21.2 °F 86% 30.07 in 5.0 mi Calm Calm - N/A   Overcast
8:56 PM 24.1 °F 19.7 °F 21.0 °F 88% 30.11 in 5.0 mi ENE 3.5 mph - N/A   Overcast
9:56 PM 23.0 °F - 21.0 °F 92% 30.12 in 4.0 mi Calm Calm - N/A   Overcast
10:56 PM 24.1 °F 18.2 °F 21.0 °F 88% 30.11 in 4.0 mi ENE 4.6 mph - 0.00 in   Overcast
11:15 PM 24.8 °F 20.5 °F 21.2 °F 86% 30.07 in 4.0 mi ENE 3.5 mph - N/A   Overcast
11:56 PM 24.1 °F - 22.1 °F 92% 30.10 in 4.0 mi Calm Calm - N/A   Overcast